This demonstration page uses our WeatherBlox Daily Observations layout. Learn more.

Left ArrowRight Arrow

41.86663, -103.66717

Hourly Observations for July 30, 2019

Temp ( °F °C ) Dew Point ( °F °C ) Humidity (%) Winds ( mph kmh ) Pressure ( in mb ) Visibility ( mi km ) Precip ( " mm )
12:53 am 00:53 Clear 66 18.9 55 12.8 68 68 ENE 12 19 29.99 1016 10 16 N/A
1:53 am 01:53 Clear 65 18.3 54 12.2 68 68 E 12 19 29.96 1015 10 16 N/A
2:53 am 02:53 Clear 64 17.8 54 12.2 70 70 ESE 13 20 29.92 1013 10 16 N/A
3:53 am 03:53 Clear 63 17.2 55 12.8 76 76 ESE 13 20 29.90 1012 10 16 N/A
4:53 am 04:53 Clear 60 15.6 56 13.3 86 86 E 7 11 29.91 1013 10 16 N/A
5:53 am 05:53 Sunny 59 15 56 13.3 90 90 ESE 9 15 29.90 1013 10 16 N/A
6:53 am 06:53 Sunny 61 16.1 57 13.9 87 87 E 5 7 29.92 1013 10 16 N/A
7:53 am 07:53 Sunny 62 16.7 58 14.4 86 86 ESE 9 15 29.93 1014 10 16 N/A
8:53 am 08:53 Sunny 70 21.1 60 15.6 71 71 VRB 3 6 29.93 1014 10 16 N/A
9:53 am 09:53 Sunny 72 22.2 61 16.1 68 68 N N/A 29.93 1013 10 16 N/A
10:53 am 10:53 Sunny 79 26.1 62 16.7 56 56 ENE 3 6 29.89 1012 10 16 N/A
1:53 pm 13:53 Sunny 88 31.1 64 17.8 45 45 SE 10 17 29.86 1011 10 16 N/A
2:53 pm 14:53 Sunny 89 31.7 62 16.7 41 41 SE 13 20 29.85 1011 10 16 N/A
3:53 pm 15:53 Sunny 90 32.2 61 16.1 38 38 ESE 13 20 29.83 1010 10 16 N/A
4:53 pm 16:53 Sunny 89 31.7 62 16.7 41 41 E 14 22 29.82 1010 10 16 N/A
5:53 pm 17:53 Sunny 88 31.1 64 17.8 45 45 ESE 14 22 29.80 1009 10 16 N/A
6:53 pm 18:53 Sunny 85 29.4 64 17.8 50 50 ESE 14 22 29.80 1009 10 16 N/A
7:53 pm 19:53 Sunny 82 27.8 64 17.8 55 55 E 14 22 29.82 1010 10 16 N/A
8:53 pm 20:53 Clear 78 25.6 65 18.3 64 64 ESE 9 15 29.82 1010 10 16 N/A
9:53 pm 21:53 Clear 76 24.4 63 17.2 64 64 E 8 13 29.86 1011 10 16 N/A
10:53 pm 22:53 Clear 76 24.4 64 17.8 67 67 ESE 15 24 29.83 1010 10 16 N/A
11:53 pm 23:53 Clear 74 23.3 65 18.3 74 74 ESE 16 26 29.82 1010 10 16 N/A

Powered by AerisWeather